FENGYUN 1C DEB, 36279

Orbit data source: Space-Track

FENGYUN 1C DEB, 36279 is space debris in SSO originally from a launch on Mon, 10 May 1999 UTC launched from the Taiyaun Space Center, China (TSC). Fengyun 1C debris stems from the Chinese weather satellite Fengyun-1C, which was intentionally destroyed by a Chinese anti-satellite missile in 2007. This event dramatically increased the amount of space debris, with thousands of trackable fragments posing hazards to satellites and human spaceflight. The Fengyun 1C debris cloud has become a focal point in discussions about space sustainability and the need for international regulations to prevent the creation of new debris.

Loading next visibility...
Identifier
36279, 1999-025DXG
Orbit
SSO
Country
Flag of CNCN / PRC
Related business
Manufacturer
Unknown
Mission
Spacecraft
Bus & Motor
Unknown
Mass
Unknown
Launch date (UTC)
1999-05-10 (26 years ago)
Launch vehicle
Unknown
Launch site
Taiyaun Space Center, China (TSC)
Object type
Payload
Rocket body
Debris
Shape & HBR
Unknown shape, 0.1 m
Radar Cross Section
Small (<0.1 m²)

Expand to show TLE details & history
Last TLE update: 19 hours ago

TLE from 19 hours ago
0 FENGYUN 1C DEB
1 36279U 99025DXG 25310.16954035  .00000253  00000-0  15000-3 0  9995
2 36279  98.5571 289.6777 0062247 158.7657 201.6121 14.14699245885223
Epoch: 2025-11-06T04:04Z
TLE epoch observation values (Epoch: 2025-11-06T04:04:08.286Z)
Latitude
-0.00005°
Longitude
-176.98853°
Altitude
888.085 km
Speed
7.387 km/s
True Right ascension
19h 18m 42s
True Declination
0° 00' 00"
Sunlit
Object was in daylight at epoch
Visualization orbit readout
Latitude
Unknown
Longitude
Unknown
Altitude
Unknown
Speed
Unknown
Apparent Right ascension
Unknown
Apparent Declination
Unknown
Sunlit
N/A
Visualization observer readout
Local Sidereal Time
18:52:40
Azimuth
Unknown
Elevation
Unknown
Doppler factor
Unknown
Orbital elements
Apogee altitude
885.428 km
Perigee altitude
795.56 km
Semi-major axis
7,218.631 km
Eccentricity
0.00622
Inclination
98.5571°
RAAN
289.6777°
Arg. of periapsis
158.7657°
True anomaly
201.35127°
Mean anomaly
201.6121°
Eccentric anomaly
201.48149°
Mean motion
3.53884 °/min
Orbital period
101.73 mins
BSTAR
0.00015
Loading maneuver chart data...
Computing Atmospheric mass density...

Documentation

Showing up to 5 results
|